Regional Weather Roundup
Issued by NWS

Home | Current Version | Previous Version | Graphics & Text | Print | Product List | Glossary On
Versions: 1 2 3 4 5 6 7 8 9 10 11 12 13 14 15 16 17 18 19 20 21 22 23 24 25 26 27 28 29 30 31 32 33 34 35 36 37 38 39 40 41 42 43 44 45 46 47 48 49 50
000
ASUS43 KLSX 180659
RWRMO

WEATHER SUMMARY FOR MISSOURI
NATIONAL WEATHER SERVICE SPRINGFIELD MO
200 AM CDT FRI APR 18 2014

NOTE: "FAIR" INDICATES FEW OR NO CLOUDS BELOW 12,000 FEET WITH NO
       SIGNIFICANT WEATHER AND/OR OBSTRUCTIONS TO VISIBILITY.
       CURRENT SKY AND/OR WEATHER CONDITIONS ARE NOT AVAILABLE FOR
       CHILLICOTHE AND FARMINGTON.

MOZ001>031-035>038-043-044-053-054-180800-
...NORTHERN AND WESTERN MISSOURI...

CITY           SKY/WX    TMP DP  RH WIND       PRES   REMARKS
KANSAS CTY INT PTCLDY    40  32  73 W3        30.28S
KANSAS C DTWN  CLEAR     40  35  83 CALM      30.28S
LEE`S SUMMIT   CLEAR     39  33  79 CALM      30.28S
ST JOSEPH      CLEAR     35  31  85 CALM      30.29S
CHILLICOTHE      N/A     33  29  85 CALM      30.30R
KIRKSVILLE     CLEAR     30  28  92 NW5       30.28S WCI  25

$$
MOZ066>068-077>081-088>096-101>105-180800-
...SOUTHWEST MISSOURI...

CITY           SKY/WX    TMP DP  RH WIND       PRES   REMARKS
SPRINGFIELD    MOCLDY    48  39  71 NE6       30.23F
JOPLIN         CLOUDY    45  41  86 N3        30.27S

$$
MOZ032>034-039>042-045>050-055>058-069>072-180800-
...CENTRAL MISSOURI...

CITY           SKY/WX    TMP DP  RH WIND       PRES   REMARKS
COLUMBIA       CLEAR     44  39  82 N5        30.27S
JEFFERSON CITY MOCLDY    46  40  79 CALM      30.28R
ROLLA          PTCLDY    41  37  86 CALM      30.25S
SEDALIA        CLEAR     40  38  93 NW3       30.28F FOG
OSAGE BEACH    PTCLDY    41  36  81 N3        30.29R

$$
MOZ051-052-059>065-180800-
...EAST CENTRAL MISSOURI...

CITY           SKY/WX    TMP DP  RH WIND       PRES   REMARKS
ST LOUIS INTL  MOCLDY    52  38  58 NE5       30.27F
SPIRIT OF STL  PTCLDY    46  40  79 CALM      30.26F
ST CHARLES     MOCLDY    49  39  68 NE8       30.26F

$$
MOZ072>076-082>087-097>100-106>115-180800-
...SOUTH CENTRAL AND SOUTHEAST MISSOURI...

CITY           SKY/WX    TMP DP  RH WIND       PRES   REMARKS
CAPE GIRARDEAU CLEAR     46  43  89 N5        30.24S
FARMINGTON     MOCLDY    48  39  71 NW5       30.27F
POPLAR BLUFF   MOCLDY    50  42  74 CALM      30.21F
WEST PLAINS    CLOUDY    52  38  58 N5        30.25R

$$



USA.gov is the U.S. government's official web portal to all federal, state and local government web resources and services.